TimeEST,TemperatureF,Dew PointF,Humidity,Sea Level PressureIn,VisibilityMPH,Wind Direction,Wind SpeedMPH,Gust SpeedMPH,PrecipitationIn,Events,Conditions,WindDirDegrees,DateUTC
12:00 AM,49.1,45.1,86,30.19,-9999.0,South,8.1,-,N/A,,Unknown,170,2012-11-22 05:00:00
1:00 AM,48,45,85,30.18,,SW,2.3,,,,,220,2012-11-22 06:00:00
1:00 AM,48.2,45.0,89,30.18,-9999.0,SW,2.3,-,N/A,,Unknown,220,2012-11-22 06:00:00
2:00 AM,49.1,45.1,86,30.17,-9999.0,South,9.2,-,N/A,,Unknown,190,2012-11-22 07:00:00
3:00 AM,48.9,45.1,87,30.17,-9999.0,South,8.1,-,N/A,,Unknown,190,2012-11-22 08:00:00
4:00 AM,48.7,44.8,86,30.16,-9999.0,SSW,9.2,-,N/A,,Unknown,200,2012-11-22 09:00:00
5:00 AM,48.6,44.6,86,30.16,-9999.0,SSW,9.2,-,N/A,,Unknown,200,2012-11-22 10:00:00
6:00 AM,48.6,44.8,87,30.16,-9999.0,South,10.4,-,N/A,,Unknown,190,2012-11-22 11:00:00
7:00 AM,49,45,79,30.16,,SSW,9.2,,,,,200,2012-11-22 12:00:00
7:00 AM,48.6,44.6,86,30.16,-9999.0,SSW,9.2,-,N/A,,Unknown,200,2012-11-22 12:00:00
8:00 AM,48.7,44.4,85,30.17,-9999.0,SSW,9.2,-,N/A,,Unknown,200,2012-11-22 13:00:00
9:00 AM,49.5,44.4,83,30.16,-9999.0,SSW,10.4,-,N/A,,Unknown,200,2012-11-22 14:00:00
10:00 AM,50.0,45.1,83,30.15,-9999.0,SSW,9.2,-,N/A,,Unknown,200,2012-11-22 15:00:00
11:00 AM,50.5,45.0,81,30.14,-9999.0,SSW,9.2,-,N/A,,Unknown,200,2012-11-22 16:00:00
12:00 PM,50.5,44.1,78,30.11,-9999.0,South,11.5,-,N/A,,Unknown,190,2012-11-22 17:00:00
1:00 PM,51,45,72,30.09,,South,11.5,,,,,180,2012-11-22 18:00:00
1:00 PM,51.3,44.8,78,30.09,-9999.0,South,11.5,-,N/A,,Unknown,180,2012-11-22 18:00:00
2:00 PM,50.5,45.1,82,30.07,-9999.0,SSE,8.1,-,N/A,,Unknown,160,2012-11-22 19:00:00
3:00 PM,51.4,45.7,81,30.05,-9999.0,South,9.2,-,N/A,,Unknown,170,2012-11-22 20:00:00
4:00 PM,50.9,45.5,82,30.03,-9999.0,SSE,10.4,-,N/A,,Unknown,160,2012-11-22 21:00:00
5:00 PM,50.9,45.9,83,30.01,-9999.0,SSE,9.2,-,N/A,,Unknown,160,2012-11-22 22:00:00
6:00 PM,50.9,45.9,83,30.00,-9999.0,SSE,10.4,-,N/A,,Unknown,160,2012-11-22 23:00:00
7:00 PM,51,46,77,29.99,,SSE,10.4,,,,,160,2012-11-23 00:00:00
7:00 PM,50.9,46.0,83,29.99,-9999.0,SSE,10.4,-,N/A,,Unknown,160,2012-11-23 00:00:00
8:00 PM,51.4,45.5,80,29.96,-9999.0,SSE,11.5,-,N/A,,Unknown,160,2012-11-23 01:00:00
9:00 PM,52.2,44.8,76,29.95,-9999.0,South,16.1,-,N/A,,Unknown,170,2012-11-23 02:00:00
10:00 PM,52.2,44.2,74,29.93,-9999.0,South,17.3,-,N/A,,Unknown,170,2012-11-23 03:00:00
11:00 PM,53.2,43.5,70,29.91,-9999.0,South,21.9,29.9,N/A,,Unknown,180,2012-11-23 04:00:00